West Tisbury, MA

4:19 PM EDT on September 30, 2016 (GMT -0400)
Martha's Vineyard

Weather History for KMVY - April, 2014

Change the Weather History Date:

Friday, April 4, 2014

  Actual Average Record
Temperature  
Mean Temperature 42 °F -  
Max Temperature 52 °F 53 °F 71 °F (1967)
Min Temperature 34 °F 35 °F 12 °F (1954)
Degree Days  
Heating Degree Days 23    
Moisture  
Dew Point 31 °F    
Average Humidity 67    
Maximum Humidity 85    
Minimum Humidity 41    
Precipitation  
Precipitation 0.01 in - - ()
Sea Level Pressure  
Sea Level Pressure 30.05 in    
Wind  
Wind Speed 8 mph (East)    
Max Wind Speed 25 mph    
Max Gust Speed 33 mph    
Visibility 10 miles    
Events Rain    
Averages and records for this station are not official NWS values.
T = Trace of Precipitation, MM = Missing Value Source: NWS Daily Summary

Daily Weather History Graph

Daily Weather History Graph

Search for Another Location

Airport or City:

Trip Planner

Search our weather history database for the weather conditions in past years. The results will help you decide how hot, cold, wet, or windy it might be!

Date:

Astronomy

Apr. 04, 2014 Rise Set
Actual Time 6:20 AM EDT 7:10 PM EDT
Civil Twilight 5:52 AM EDT 7:38 PM EDT
Nautical Twilight 5:19 AM EDT 8:12 PM EDT
Astronomical Twilight 4:44 AM EDT 8:46 PM EDT
Moon 9:32 AM EDT (4/4) No Moon Set
Length of Visible Light 13h 46m
Length of Day
12h 50m
Waxing Crescent, 25% of the Moon is Illuminated
Apr 4
Waxing Crescent
Apr 7
First Quarter
Apr 15
Full
Apr 22
Last Quarter
Apr 29
New

Hourly Weather History & Observations

Time (EDT) Temp. Windchill Dew Point Humidity Pressure Visibility Wind Dir Wind Speed Gust Speed Precip Events Conditions
12:53 AM 35.1 °F - 30.0 °F 82% 30.13 in 10.0 mi Calm Calm - N/A   Clear
1:53 AM 34.0 °F - 28.9 °F 82% 30.13 in 10.0 mi Calm Calm - N/A   Clear
2:53 AM 34.0 °F - 28.9 °F 82% 30.12 in 10.0 mi Calm Calm - N/A   Clear
3:53 AM 34.0 °F 31.0 °F 28.9 °F 82% 30.12 in 10.0 mi NNW 3.5 mph - N/A   Clear
4:53 AM 35.1 °F 32.2 °F 28.9 °F 78% 30.10 in 10.0 mi NNE 3.5 mph - N/A   Clear
5:53 AM 37.0 °F 32.4 °F 30.9 °F 79% 30.11 in 10.0 mi NE 5.8 mph - N/A   Mostly Cloudy
6:53 AM 39.0 °F 35.7 °F 30.0 °F 70% 30.13 in 10.0 mi NE 4.6 mph - N/A   Overcast
7:53 AM 42.1 °F 37.1 °F 32.0 °F 67% 30.13 in 10.0 mi ENE 8.1 mph - N/A   Overcast
8:53 AM 44.1 °F 38.6 °F 33.1 °F 65% 30.14 in 10.0 mi ENE 10.4 mph - N/A   Overcast
9:53 AM 44.1 °F 37.7 °F 33.1 °F 65% 30.15 in 10.0 mi NE 12.7 mph - N/A   Overcast
10:53 AM 46.0 °F 39.6 °F 32.0 °F 58% 30.13 in 10.0 mi East 15.0 mph - N/A   Overcast
11:53 AM 48.0 °F - 28.9 °F 48% 30.12 in 10.0 mi East 17.3 mph - N/A   Overcast
12:53 PM 50.0 °F - 27.0 °F 41% 30.11 in 10.0 mi East 13.8 mph - N/A   Partly Cloudy
1:53 PM 50.0 °F - 28.9 °F 44% 30.09 in 10.0 mi ENE 17.3 mph - N/A   Clear
2:53 PM 46.0 °F 39.6 °F 30.0 °F 54% 30.09 in 10.0 mi East 15.0 mph - N/A   Overcast
3:53 PM 45.0 °F 39.3 °F 30.0 °F 56% 30.06 in 10.0 mi East 11.5 mph - N/A   Overcast
4:53 PM 44.1 °F 37.7 °F 30.9 °F 60% 30.06 in 10.0 mi ESE 12.7 mph - N/A   Overcast
5:53 PM 43.0 °F 36.0 °F 33.1 °F 68% 30.03 in 10.0 mi ESE 13.8 mph - N/A   Overcast
6:53 PM 43.0 °F 35.4 °F 30.0 °F 60% 29.98 in 10.0 mi ESE 16.1 mph - N/A   Overcast
7:53 PM 43.0 °F 36.0 °F 28.9 °F 58% 29.95 in 10.0 mi ESE 13.8 mph 20.7 mph N/A   Overcast
8:53 PM 43.0 °F 33.3 °F 28.9 °F 58% 29.93 in 10.0 mi ESE 25.3 mph 33.4 mph N/A   Overcast
9:45 PM 42.1 °F 33.6 °F 33.1 °F 70% 29.90 in 10.0 mi ESE 18.4 mph 29.9 mph 0.00 in Rain Light Rain
9:53 PM 41.0 °F 31.4 °F 34.0 °F 76% 29.91 in 8.0 mi ESE 21.9 mph 31.1 mph 0.00 in Rain Light Rain
10:53 PM 42.1 °F 34.2 °F 35.1 °F 76% 29.87 in 10.0 mi ESE 16.1 mph - 0.00 in   Overcast
11:53 PM 42.1 °F 33.9 °F 37.9 °F 85% 29.82 in 10.0 mi ESE 17.3 mph - 0.01 in Rain Light Rain